Regional Weather Roundup
Issued by NWS Upton, NY

Home | Current Version | Previous Version | Text Only | Print | Product List | Glossary On
Versions: 1 2 3 4 5 6 7 8 9 10 11 12 13 14 15 16 17 18 19 20 21 22 23 24 25 26 27
000
ASUS41 KOKX 012004
RWROKX

REGIONAL WEATHER ROUNDUP
NATIONAL WEATHER SERVICE NEW YORK NY
400 PM EDT SUN MAY 01 2016

NOTE: "FAIR" INDICATES FEW OR NO CLOUDS BELOW 12,000 FEET WITH NO
SIGNIFICANT WEATHER AND/OR OBSTRUCTIONS TO VISIBILITY.

NYZ071-072-176-178-NJZ106-104-012100-
NEW YORK CITY METRO AREA


CITY           SKY/WX    TMP DP  RH WIND       PRES   REMARKS
CENTRAL PARK   CLOUDY    49  41  74 VRB3      30.16F
LAGUARDIA APRT CLOUDY    50  42  74 SE10G16   30.14F
KENNEDY INTL   LGT RAIN  48  44  86 E13       30.15F FOG
NEWARK/LIBERTY LGT RAIN  45  44  97 SE9       30.13F
BRNX BOT. GARD   N/A     46  43  87 E6        30.15R
TETERBORO      LGT RAIN  49  41  74 SE7G28    30.13S
$$

NYZ177-179-078>081-012100-
LONG ISLAND NEW YORK

CITY           SKY/WX    TMP DP  RH WIND       PRES   REMARKS
FARMINGDALE    CLOUDY    48  44  86 E8        30.15F
ISLIP          LGT RAIN  47  44  90 E12       30.15F FOG
SHIRLEY        LGT RAIN  46  43  89 VRB5      30.17S
RIVERHEAD        N/A     46  41  81 SE2       30.17S
WESTHAMPTON    LGT RAIN  45  39  79 SE8       30.19F
EAST HAMPTON   LGT RAIN  43  38  80 E9        30.19S
MONTAUK POINT    N/A     44  39  82 CALM      30.21F
$$

NYZ052-065-067-012100-
HUDSON VALLEY

CITY           SKY/WX    TMP DP  RH WIND       PRES   REMARKS
WHITE PLAINS   LGT RAIN  46  45  96 SE7       30.13F FOG
NEWBURGH       LGT RAIN  45  45 100 SE12      30.14F FOG
MONTGOMERY     LGT RAIN  47  45  93 NE3       30.12F FOG
POUGHKEEPSIE   LGT RAIN  49  44  83 S3        30.14S
ALBANY         CLOUDY    46  41  82 SE10      30.13F
$$

NJZ001-105-106-008-010-013-015-019>022-104-012100-
NEW JERSEY

CITY           SKY/WX    TMP DP  RH WIND       PRES   REMARKS
NEWARK/LIBERTY LGT RAIN  45  44  97 SE9       30.13F
TETERBORO      LGT RAIN  49  41  74 SE7G28    30.13S
CALDWELL       LGT RAIN  48  44  86 SE5       30.13F FOG
MORRISTOWN     DRIZZLE   48  46  93 SE6       30.13F
SOMERVILLE     CLOUDY    50  46  86 VRB5      30.10F
SUSSEX         LGT RAIN  47  44  90 S5        30.12F FOG
ANDOVER          N/A     47  44  90 VRB3      30.11F
TRENTON        CLOUDY    50  47  89 SE9       30.10F
MILLVILLE      CLOUDY    52  50  93 E6        30.08F
ATLANTIC CITY  LGT RAIN  51  51 100 NE6       30.10S FOG
WRIGHTSTOWN    CLOUDY    50  48  93 E6        30.08F FOG
TOMS RIVER     CLOUDY    48  46  93 E5        30.11F
BELMAR         LGT RAIN  48  47  96 E12       30.12F FOG
$$

PAZ047>061-062-071-012100-
EASTERN PENNSYLVANIA

CITY           SKY/WX    TMP DP  RH WIND       PRES   REMARKS
PHILADELPHIA   LGT RAIN  53  49  86 SE3       30.11F FOG
ALLENTOWN      CLOUDY    50  46  86 SE6       30.09F
SCRANTON       LGT RAIN  47  43  86 CALM      30.06F
$$

CTZ002-004>006-009-010-012-RIZ004-006-007-MAZ004-011-015-012100-
SOUTHERN NEW ENGLAND
 IN CT

CITY           SKY/WX    TMP DP  RH WIND       PRES   REMARKS
BRADLEY INTL   LGT RAIN  46  37  71 S5        30.18S
HARTFORD       LGT RAIN  47  39  74 S7        30.20R
DANBURY        LGT RAIN  46  43  89 E12       30.16S FOG
WTRBRY/OXFORD  LGT RAIN  43  37  81 SE6       30.18S FOG
BRIDGEPORT     LGT RAIN  47  42  83 E14       30.17F
MERIDEN        LGT RAIN  47  35  63 SE8       30.19S
NEW HAVEN      CLOUDY    47  38  71 SE9       30.17F
CHESTER        LGT RAIN  45  36  70 SE5       30.18F
GROTON         LGT RAIN  46  43  89 SE10      30.20S
WILLIMANTIC    LGT RAIN  51  29  42 VRB5      30.19S

 IN RI

CITY           SKY/WX    TMP DP  RH WIND       PRES   REMARKS
PROVIDENCE     DRIZZLE   48  33  56 S6        30.21F
BLOCK ISLAND   LGT RAIN  44  37  76 SE8       30.21F
WESTERLY       LGT RAIN  47  36  65 SE9       30.21F

 IN MA

CITY           SKY/WX    TMP DP  RH WIND       PRES   REMARKS
BOSTON         CLOUDY    51  28  41 SE5       30.22F
WORCESTER      CLOUDY    47  25  42 SE8       30.18F
WESTFIELD      LGT RAIN  46  34  62 E5        30.18F
PROVINCETOWN   LGT RAIN  49  37  63 S9        30.25R
NANTUCKET      LGT RAIN  49  42  77 SE12      30.22S
$$

ANZ330-335-338-340-345-350-353-355-012100-
COASTAL MARINE OBSERVATIONS


STATION/POSITION TIME  SKY/WX   TEMP    WIND        PRES    VSBY  WAVE
                                AIR SEA DIR/SP/G                  HT/PER
                 (UTC)          (F)     (DEG/KT/KT) (MB)    (MI)  (FT/S)
NY HARB ENTRANCE 1850            47 51  110/ 16/ 19 1019.9          4/ 7
20S FIRE ISLAND  1850            47 48   80/ 12/ 14 1020.7          4/ 8
GREAT SOUTH BAY  1915            47 57  100/ 14/ 16   N/A
23 SSW MONTAUK P 1950            44 48  120/ 12/ 14 1021.4          4/10
15 E BARNEGAT LI 1922               51                N/A           5/ 9
HUDSON CANYON    1850            50 49              1019.9          5/ 8
KINGS POINT      1900            48 54              1020.6
EXECUTION ROCKS  NOT AVBL
CENTRAL LI SOUND 1900            47     130/ 12/ 14   N/A           1/ 2
EASTERN LI SOUND 1900            47 48  110/ 10/ 12   N/A
ROBBINS REEF     1900            48     120/ 12/ 13 1019.9
$$


>>>>>>>>>>>>>>>>>>>>>>>>>>>> KEY <<<<<<<<<<<<<<<<<<<<<<<<<<<
>                                                          <
>     SKY/WX - SKY CONDITION/PRESENT WEATHER               <
>     TMP    - TEMPERATURE IN FAHRENHEIT                   <
>     DP     - DEWPOINT IN FAHRENHEIT                      <
>     RH     - RELATIVE HUMIDITY IN PERCENT                <
>     WIND   - DIRECTION AND SPEED IN MPH                  <
>     PRES   - MEAN SEA LEVEL PRESSURE IN INCHES OF HG     <
>     WCI    - WIND CHILL INDEX                            <
>     VSB    - VISIBILITY IN MILES                         <
>     HX     - HEAT INDEX                                  <
>     TC     - TEMPERATURE IN CELSIUS                      <
>     VRB    - VARIABLE WIND DIRECTION                     <
>                                                          <
>>>>>>>>>>>>>>>>>>>>>>>>>>>> KEY <<<<<<<<<<<<<<<<<<<<<<<<<<<






USA.gov is the U.S. government's official web portal to all federal, state and local government web resources and services.